Vorticity
3 2 1 3 4 3 13 6 -3 9 -8 5 4 2 13 -14 36 -18 -16 12 8 8
1 1 3 2 2 9 -2 13 -5 4 4 -1 16 11 -5 -2 8 -1 5 12 8 10
0 1 3 4 6 16 16 16 -8 1 3 34 6 -8 -6 7 3 15 10 9 9 8
-1 -2 11 10 28 7 3 7 5 -7 22 -5 -8 -14 14 -1 12 8 9 9 9 7
11 11 11 10 25 2 5 3 7 -12 9 0 -34 -4 0 5 10 8 10 8 8 4
4 6 16 18 12 -5 2 -10 19 39 6 -8 -17 5 7 14 9 10 7 7 6 9
9 10 5 7 -10 22 -10 33 38 2 -29 1 9 12 6 8 8 8 7 7 9 7
7 8 3 11 15 30 3 -12 -8 3 -4 11 7 10 7 9 9 6 7 8 7 5
12 10 3 6 10 12 19 9 14 14 10 7 7 11 8 10 5 7 8 7 6 5
9 10 8 7 6 6 6 7 7 6 7 10 10 8 9 6 7 8 8 6 5 6
6 6 6 5 5 6 6 7 8 9 10 8 9 7 6 7 7 8 7 6 5 5
6 5 4 5 5 5 8 9 9 8 8 10 7 6 8 7 7 6 5 5 7 4
5 5 5 5 6 8 8 8 9 10 9 7 7 8 9 7 6 6 6 6 5 8
5 5 6 6 8 9 10 10 9 8 6 7 9 9 8 8 7 7 6 5 7 15
Height
5752 5751 5751 5750 5747 5745 5742 5738 5736 5732 5729 5725 5719 5715 5711 5706 5700 5694 5687 5681 5673 5664
5746 5746 5745 5743 5740 5736 5732 5729 5725 5723 5719 5714 5710 5704 5699 5695 5690 5684 5676 5668 5659 5650
5741 5739 5738 5735 5731 5727 5723 5720 5717 5712 5709 5705 5700 5694 5689 5683 5677 5669 5661 5652 5644 5635
5733 5731 5729 5725 5721 5717 5715 5711 5707 5703 5700 5696 5689 5685 5679 5671 5662 5655 5646 5638 5630 5619
5725 5722 5719 5714 5711 5709 5706 5702 5697 5692 5687 5681 5677 5671 5664 5657 5648 5640 5632 5623 5614 5605
5716 5713 5709 5706 5703 5701 5699 5693 5686 5679 5675 5671 5665 5657 5649 5642 5634 5625 5617 5608 5599 5588
5706 5704 5701 5698 5695 5691 5686 5682 5678 5672 5667 5660 5652 5644 5635 5627 5619 5611 5603 5592 5582 5572
5697 5695 5692 5689 5688 5683 5677 5669 5667 5662 5656 5647 5638 5630 5621 5613 5605 5596 5586 5576 5566 5555
5688 5686 5683 5680 5677 5674 5668 5662 5658 5650 5642 5632 5624 5615 5607 5598 5590 5581 5571 5561 5550 5538
5679 5676 5673 5669 5664 5659 5653 5648 5641 5634 5626 5617 5607 5600 5591 5582 5575 5566 5555 5544 5533 5522
5669 5664 5660 5656 5651 5646 5640 5633 5626 5618 5610 5602 5592 5583 5575 5566 5558 5549 5539 5528 5516 5505
5657 5652 5647 5643 5637 5631 5624 5617 5610 5603 5595 5587 5578 5568 5558 5548 5541 5534 5524 5511 5499 5486
5645 5640 5635 5629 5623 5617 5610 5603 5595 5586 5579 5571 5563 5552 5542 5531 5521 5515 5506 5495 5481 5467
5632 5627 5621 5615 5609 5602 5595 5588 5580 5573 5564 5555 5547 5538 5527 5514 5502 5491 5484 5472 5461 5448